{"data":{"norad_id":66860,"intl_designator":"2025-281N","name":"STARLINK-35987","alt_names":[],"object_type":"PAYLOAD","status":"ACTIVE","operator":null,"country":"US","launch_date":"2025-12-02","launch_site_code":"AFETR","launch_vehicle":null,"mission":null,"orbit_class":"UNKNOWN","rcs_meters":null,"size_class":null,"mass_kg":null,"dimensions":null,"purposes":["comms"],"wikipedia_slug":null,"has_3d_model":false,"image_url":null,"decayed_at":null,"tle_current":{"epoch":"2026-09-20T15:31:02.969760Z","epoch_age_seconds":71441,"freshness":"FRESH","line1":"1 66860U 25281N   26263.64656215  .00013796  00000+0  50979-3 0  9996","line2":"2 66860  43.0010 322.2874 0001331 271.1705  88.8994 15.27588302 46002","mean_motion":15.27588302,"eccentricity":0.0001331,"inclination_deg":43.001,"raan_deg":322.2874,"arg_perigee_deg":271.1705,"mean_anomaly_deg":88.8994,"bstar":0.00050979,"rev_number":4600,"period_min":94.266236401174,"perigee_km":482.11101641697,"apogee_km":483.93745753825,"semimajor_km":6861.1612369776,"source":"CELESTRAK","updated_at":"2026-09-21T09:00:36.028227Z"}}}